Weather in Bilino

Russia / Smolensk Oblast     55°13′22″N   33°28′40″E
temp.,
°C
wind,
m/s
gust,
m/s
humid.,
%
clouds,
%
prec.,
mm/h
press.,
hPa
HPBL,
m
18 may, tue
tue1800:00+17ese513855 0.0 1004379
03:00+16se4109199 0.3 1004329
06:00+16se4119499 2.5 1004348
09:00+20sse5981100 2.5 1004514
12:00+24sse4863100 0.2 10041452
15:00+26se51152100 0.9 10032658
18:00+24se6115997 0.0 1002743
21:00+18ese31083100 1.4 1002201
19 may, wed
wed1900:00+16se4118938 1.1 1002381
03:00+14se389667 1.1 1002256
06:00+14se3895100 0.0 1002284
09:00+14se4994100 0.4 1003368
12:00+19sse577441 1.2 10041123
15:00+20sse696597 1.4 10051510
18:00+18se4778100 1.4 1005648
21:00+14se2490100 2.0 100561
20 may, thu
thu2000:00+14s2493100 0.2 100595
03:00+13nnw249696 0.8 1004128
06:00+13n3698100 1.4 1002237
09:00+15ese578373 3.2 1001916
12:00+13e5889100 0.3 1001796
15:00+12e2694100 1.3 1001441
18:00+11wnw5997100 1.2 1002498
21:00+10wnw61295100 1.4 1006854
21 may, fri
fri2100:00+9wnw51292100 0.1 1009671
03:00+9wnw51192100 0.2 1011730
06:00+8wnw3109424 0.0 1013392
09:00+13wnw467613 0.0 1014746
12:00+16wnw4550100 0.0 10151530
15:00+18w3546100 0.0 10152058
18:00+16wsw365836 0.0 1015634
21:00+11wnw347517 0.0 101758
22 may, sat
sat2200:00+8wnw227948 0.0 101812
03:00+7n11845 0.0 101810
06:00+8ene11812 0.0 101916
09:00+14e11595 0.0 1018460
12:00+18sse344917 0.0 10181421
15:00+19ssw344713 0.0 10171895
18:00+17se356791 0.0 1016382
21:00+13se3984100 0.0 1016177